| time (UTC) | temp C | wind direction | speed KPH | gust KPH | rain 1hr cm | rain 24hr cm | rain mn cm | humidity % | barometer mb |
| 20260903163018 | 27 | 297 | 3.2 | 6.4 | 0.00 | 0.00 | 0.00 | 64 | 1017.7 |
| 20260903162514 | 27 | 297 | 3.2 | 4.8 | 0.00 | 0.00 | 0.00 | 63 | 1017.7 |
| 20260903162014 | 27 | 298 | 3.2 | 4.8 | 0.00 | 0.00 | 0.00 | 63 | 1017.8 |
| 20260903161529 | 27 | 298 | 1.6 | 4.8 | 0.00 | 0.00 | 0.00 | 62 | 1017.9 |
| 20260903161025 | 27 | 298 | 1.6 | 8.0 | 0.00 | 0.00 | 0.00 | 62 | 1017.9 |
| 20260903160520 | 27 | 298 | 4.8 | 8.0 | 0.00 | 0.00 | 0.00 | 63 | 1017.8 |
| 20260903160047 | 27 | 298 | 3.2 | 6.4 | 0.00 | 0.00 | 0.00 | 62 | 1017.7 |
| 20260903155526 | 27 | 298 | 1.6 | 4.8 | 0.00 | 0.00 | 0.00 | 63 | 1017.7 |
| 20260903155022 | 27 | 298 | 1.6 | 4.8 | 0.00 | 0.00 | 0.00 | 62 | 1017.8 |
| 20260903154518 | 26 | 298 | 1.6 | 4.8 | 0.00 | 0.00 | 0.00 | 63 | 1017.8 |
| 20260903154018 | 26 | 298 | 3.2 | 4.8 | 0.00 | 0.00 | 0.00 | 65 | 1017.7 |
| 20260903153514 | 26 | 347 | 1.6 | 3.2 | 0.00 | 0.00 | 0.00 | 65 | 1017.7 |
| 20260903153030 | 26 | 347 | 1.6 | 3.2 | 0.00 | 0.00 | 0.00 | 65 | 1017.7 |
| 20260903152526 | 26 | 347 | 0.0 | 3.2 | 0.00 | 0.00 | 0.00 | 64 | 1017.6 |
| 20260903152022 | 26 | 347 | 0.0 | 3.2 | 0.00 | 0.00 | 0.00 | 66 | 1017.7 |
| 20260903151518 | 26 | 347 | 1.6 | 3.2 | 0.00 | 0.00 | 0.00 | 64 | 1017.8 |
| 20260903151014 | 26 | 347 | 1.6 | 4.8 | 0.00 | 0.00 | 0.00 | 66 | 1017.8 |
| 20260903150514 | 26 | 347 | 3.2 | 4.8 | 0.00 | 0.00 | 0.00 | 65 | 1017.8 |
| 20260903150042 | 26 | 347 | 3.2 | 4.8 | 0.00 | 0.00 | 0.00 | 66 | 1017.9 |
| 20260903145524 | 26 | 347 | 0.0 | 3.2 | 0.00 | 0.00 | 0.00 | 67 | 1017.7 |
| 20260903145021 | 26 | 347 | 1.6 | 6.4 | 0.00 | 0.00 | 0.00 | 67 | 1017.8 |
| 20260903144517 | 25 | 347 | 1.6 | 6.4 | 0.00 | 0.00 | 0.00 | 68 | 1017.9 |
| 20260903144014 | 26 | 347 | 0.0 | 6.4 | 0.00 | 0.00 | 0.00 | 69 | 1017.9 |
| 20260903143531 | 26 | 347 | 1.6 | 4.8 | 0.00 | 0.00 | 0.00 | 69 | 1017.8 |
| 20260903143031 | 25 | 348 | 1.6 | 4.8 | 0.00 | 0.00 | 0.00 | 69 | 1017.8 |
| 20260903142527 | 25 | 347 | 1.6 | 4.8 | 0.00 | 0.00 | 0.00 | 68 | 1017.8 |
| 20260903141526 | 25 | 347 | 1.6 | 4.8 | 0.00 | 0.00 | 0.00 | 65 | 1017.8 |
| 20260903141022 | 25 | 350 | 1.6 | 4.8 | 0.00 | 0.00 | 0.00 | 66 | 1017.8 |
| 20260903140518 | 25 | 353 | 1.6 | 6.4 | 0.00 | 0.00 | 0.00 | 66 | 1017.9 |
| 20260903140045 | 25 | 354 | 1.6 | 9.7 | 0.00 | 0.00 | 0.00 | 66 | 1017.9 |
| 20260903135526 | 25 | 360 | 3.2 | 9.7 | 0.00 | 0.00 | 0.00 | 66 | 1017.7 |
| 20260903135022 | 25 | 331 | 3.2 | 11.3 | 0.00 | 0.00 | 0.00 | 64 | 1017.7 |
| 20260903134522 | 26 | 358 | 4.8 | 11.3 | 0.00 | 0.00 | 0.00 | 64 | 1017.6 |
| 20260903134018 | 26 | 355 | 3.2 | 8.0 | 0.00 | 0.00 | 0.00 | 63 | 1017.5 |
| 20260903133514 | 26 | 354 | 3.2 | 6.4 | 0.00 | 0.00 | 0.00 | 63 | 1017.3 |
| 20260903133030 | 26 | 354 | 0.0 | 4.8 | 0.00 | 0.00 | 0.00 | 63 | 1017.2 |
| 20260903132526 | 26 | 354 | 1.6 | 4.8 | 0.00 | 0.00 | 0.00 | 61 | 1017.3 |
| 20260903132022 | 26 | 354 | 1.6 | 4.8 | 0.00 | 0.00 | 0.00 | 61 | 1017.2 |
| 20260903131518 | 26 | 354 | 0.0 | 3.2 | 0.00 | 0.00 | 0.00 | 63 | 1017.2 |
| 20260903131018 | 26 | 354 | 1.6 | 9.7 | 0.00 | 0.00 | 0.00 | 62 | 1017.0 |
| 20260903130514 | 26 | 354 | 3.2 | 16.1 | 0.00 | 0.00 | 0.00 | 61 | 1017.0 |
| 20260903130042 | 26 | 290 | 3.2 | 17.7 | 0.00 | 0.00 | 0.00 | 62 | 1016.9 |
| 20260903125524 | 26 | 272 | 9.7 | 17.7 | 0.00 | 0.00 | 0.00 | 62 | 1016.9 |
| 20260903125020 | 26 | 285 | 3.2 | 17.7 | 0.00 | 0.00 | 0.00 | 62 | 1016.9 |
| 20260903124516 | 26 | 256 | 11.3 | 17.7 | 0.00 | 0.00 | 0.00 | 64 | 1016.8 |
| 20260903124032 | 26 | 265 | 4.8 | 17.7 | 0.00 | 0.00 | 0.00 | 64 | 1016.7 |
| 20260903123532 | 26 | 277 | 4.8 | 17.7 | 0.00 | 0.00 | 0.00 | 62 | 1016.6 |
| 20260903123028 | 26 | 267 | 6.4 | 16.1 | 0.00 | 0.00 | 0.00 | 62 | 1016.7 |
| 20260903122524 | 26 | 225 | 3.2 | 6.4 | 0.00 | 0.00 | 0.00 | 64 | 1016.5 |
| 20260903122020 | 26 | 169 | 0.0 | 6.4 | 0.00 | 0.00 | 0.00 | 69 | 1016.6 |
| 20260903121516 | 26 | 169 | 0.0 | 8.0 | 0.00 | 0.00 | 0.00 | 69 | 1016.5 |
| 20260903121031 | 26 | 143 | 3.2 | 8.0 | 0.00 | 0.00 | 0.00 | 69 | 1016.6 |
| 20260903120527 | 26 | 114 | 4.8 | 6.4 | 0.00 | 0.00 | 0.00 | 70 | 1016.6 |
| 20260903120038 | 26 | 113 | 3.2 | 4.8 | 0.00 | 0.00 | 0.00 | 70 | 1016.5 |
| 20260903115520 | 26 | 113 | 1.6 | 4.8 | 0.00 | 0.00 | 0.00 | 70 | 1016.4 |
| 20260903115016 | 26 | 113 | 1.6 | 3.2 | 0.00 | 0.00 | 0.00 | 69 | 1016.4 |
| 20260903114532 | 26 | 113 | 1.6 | 1.6 | 0.00 | 0.00 | 0.00 | 69 | 1016.3 |
| 20260903114028 | 26 | 113 | 0.0 | 3.2 | 0.00 | 0.00 | 0.00 | 68 | 1016.3 |
| 20260903113524 | 26 | 113 | 1.6 | 3.2 | 0.00 | 0.00 | 0.00 | 68 | 1016.3 |
| 20260903113020 | 26 | 113 | 1.6 | 4.8 | 0.00 | 0.00 | 0.00 | 68 | 1016.3 |
| 20260903112519 | 26 | 113 | 3.2 | 4.8 | 0.00 | 0.00 | 0.00 | 68 | 1016.3 |
| 20260903112016 | 26 | 113 | 3.2 | 4.8 | 0.00 | 0.00 | 0.00 | 68 | 1016.3 |
| 20260903111531 | 26 | 114 | 3.2 | 6.4 | 0.00 | 0.00 | 0.00 | 68 | 1016.3 |
| 20260903111027 | 26 | 115 | 4.8 | 6.4 | 0.00 | 0.00 | 0.00 | 69 | 1016.3 |
| 20260903110523 | 26 | 115 | 3.2 | 6.4 | 0.00 | 0.00 | 0.00 | 69 | 1016.3 |
| 20260903110032 | 26 | 115 | 3.2 | 6.4 | 0.00 | 0.00 | 0.00 | 69 | 1016.2 |
| 20260903105513 | 26 | 117 | 3.2 | 8.0 | 0.00 | 0.00 | 0.00 | 69 | 1016.2 |
| 20260903105013 | 26 | 122 | 1.6 | 8.0 | 0.00 | 0.00 | 0.00 | 70 | 1016.3 |
| 20260903104529 | 26 | 122 | 4.8 | 8.0 | 0.00 | 0.00 | 0.00 | 69 | 1016.3 |
| 20260903104025 | 26 | 126 | 4.8 | 6.4 | 0.00 | 0.00 | 0.00 | 70 | 1016.3 |
| 20260903103521 | 26 | 127 | 3.2 | 4.8 | 0.00 | 0.00 | 0.00 | 70 | 1016.3 |
| 20260903103017 | 26 | 127 | 1.6 | 4.8 | 0.00 | 0.00 | 0.00 | 70 | 1016.4 |
| 20260903102513 | 26 | 127 | 3.2 | 6.4 | 0.00 | 0.00 | 0.00 | 69 | 1016.4 |
| 20260903102029 | 26 | 127 | 3.2 | 6.4 | 0.00 | 0.00 | 0.00 | 69 | 1016.3 |
| 20260903101524 | 26 | 127 | 1.6 | 4.8 | 0.00 | 0.00 | 0.00 | 69 | 1016.5 |
| 20260903101024 | 26 | 127 | 1.6 | 8.0 | 0.00 | 0.00 | 0.00 | 69 | 1016.4 |
| 20260903100520 | 26 | 127 | 3.2 | 8.0 | 0.00 | 0.00 | 0.00 | 69 | 1016.4 |
| 20260903100028 | 26 | 127 | 4.8 | 8.0 | 0.00 | 0.00 | 0.00 | 69 | 1016.5 |
| 20260903095530 | 26 | 127 | 3.2 | 6.4 | 0.00 | 0.00 | 0.00 | 69 | 1016.5 |
| 20260903095026 | 26 | 126 | 3.2 | 6.4 | 0.00 | 0.00 | 0.00 | 68 | 1016.5 |
| 20260903094522 | 26 | 127 | 3.2 | 6.4 | 0.00 | 0.00 | 0.00 | 68 | 1016.5 |
| 20260903094018 | 26 | 127 | 3.2 | 8.0 | 0.00 | 0.00 | 0.00 | 68 | 1016.4 |
| 20260903093518 | 27 | 126 | 3.2 | 6.4 | 0.00 | 0.00 | 0.00 | 68 | 1016.5 |
| 20260903093014 | 27 | 126 | 1.6 | 4.8 | 0.00 | 0.00 | 0.00 | 67 | 1016.5 |
| 20260903092530 | 27 | 126 | 1.6 | 4.8 | 0.00 | 0.00 | 0.00 | 66 | 1016.5 |
| 20260903092025 | 27 | 126 | 1.6 | 1.6 | 0.00 | 0.00 | 0.00 | 66 | 1016.4 |
| 20260903091520 | 27 | 126 | 0.0 | 1.6 | 0.00 | 0.00 | 0.00 | 65 | 1016.4 |
| 20260903091017 | 27 | 126 | 1.6 | 1.6 | 0.00 | 0.00 | 0.00 | 64 | 1016.4 |
| 20260903090512 | 27 | 126 | 0.0 | 0.0 | 0.00 | 0.00 | 0.00 | 65 | 1016.4 |
| 20260903090044 | 27 | 126 | 0.0 | 1.6 | 0.00 | 0.00 | 0.00 | 66 | 1016.5 |
| 20260903085526 | 27 | 126 | 0.0 | 1.6 | 0.00 | 0.00 | 0.00 | 64 | 1016.5 |
| 20260903085022 | 27 | 126 | 1.6 | 1.6 | 0.00 | 0.00 | 0.00 | 65 | 1016.5 |
| 20260903084517 | 27 | 126 | 0.0 | 1.6 | 0.00 | 0.00 | 0.00 | 64 | 1016.7 |
| 20260903084013 | 27 | 126 | 0.0 | 1.6 | 0.00 | 0.00 | 0.00 | 62 | 1016.7 |
| 20260903083529 | 27 | 126 | 0.0 | 1.6 | 0.00 | 0.00 | 0.00 | 63 | 1016.6 |
| 20260903083024 | 27 | 126 | 0.0 | 1.6 | 0.00 | 0.00 | 0.00 | 62 | 1016.6 |
| 20260903082524 | 27 | 126 | 0.0 | 1.6 | 0.00 | 0.00 | 0.00 | 62 | 1016.6 |
| 20260903082020 | 27 | 126 | 1.6 | 1.6 | 0.00 | 0.00 | 0.00 | 61 | 1016.6 |
| 20260903081515 | 27 | 126 | 0.0 | 1.6 | 0.00 | 0.00 | 0.00 | 62 | 1016.7 |
| 20260903081031 | 27 | 126 | 0.0 | 1.6 | 0.00 | 0.00 | 0.00 | 61 | 1016.6 |
| 20260903080527 | 27 | 126 | 1.6 | 1.6 | 0.00 | 0.00 | 0.00 | 61 | 1016.7 |
| 20260903080034 | 27 | 126 | 0.0 | 1.6 | 0.00 | 0.00 | 0.00 | 63 | 1016.7 |
| 20260903075515 | 27 | 126 | 0.0 | 4.8 | 0.00 | 0.00 | 0.00 | 62 | 1016.8 |
| 20260903075015 | 27 | 126 | 0.0 | 4.8 | 0.00 | 0.00 | 0.00 | 63 | 1016.7 |
| 20260903074531 | 27 | 126 | 1.6 | 3.2 | 0.00 | 0.00 | 0.00 | 61 | 1016.7 |
| 20260903074027 | 27 | 126 | 1.6 | 3.2 | 0.00 | 0.00 | 0.00 | 61 | 1016.8 |
| 20260903073522 | 27 | 126 | 0.0 | 3.2 | 0.00 | 0.00 | 0.00 | 59 | 1016.7 |
| 20260903073018 | 28 | 126 | 1.6 | 3.2 | 0.00 | 0.00 | 0.00 | 58 | 1016.8 |
| 20260903072514 | 27 | 126 | 0.0 | 1.6 | 0.00 | 0.00 | 0.00 | 60 | 1016.8 |
| 20260903072030 | 27 | 126 | 0.0 | 3.2 | 0.00 | 0.00 | 0.00 | 62 | 1016.8 |
| 20260903071526 | 27 | 126 | 0.0 | 4.8 | 0.00 | 0.00 | 0.00 | 62 | 1016.8 |
| 20260903071025 | 27 | 126 | 1.6 | 4.8 | 0.00 | 0.00 | 0.00 | 61 | 1016.7 |
| 20260903070521 | 27 | 126 | 1.6 | 3.2 | 0.00 | 0.00 | 0.00 | 61 | 1016.6 |
| 20260903070030 | 27 | 126 | 0.0 | 3.2 | 0.00 | 0.00 | 0.00 | 59 | 1016.5 |
| 20260903065531 | 27 | 126 | 0.0 | 3.2 | 0.00 | 0.00 | 0.00 | 61 | 1016.6 |
| 20260903065026 | 27 | 126 | 1.6 | 3.2 | 0.00 | 0.00 | 0.00 | 61 | 1016.5 |
| 20260903064522 | 27 | 126 | 0.0 | 3.2 | 0.00 | 0.00 | 0.00 | 61 | 1016.4 |
| 20260903064017 | 27 | 126 | 1.6 | 3.2 | 0.00 | 0.00 | 0.00 | 60 | 1016.4 |
| 20260903063517 | 28 | 126 | 1.6 | 3.2 | 0.00 | 0.00 | 0.00 | 60 | 1016.3 |
| 20260903063013 | 27 | 126 | 0.0 | 1.6 | 0.00 | 0.00 | 0.00 | 61 | 1016.4 |
| 20260903062529 | 27 | 126 | 0.0 | 1.6 | 0.00 | 0.00 | 0.00 | 61 | 1016.6 |
| 20260903062025 | 28 | 126 | 1.6 | 1.6 | 0.00 | 0.00 | 0.00 | 59 | 1016.5 |
| 20260903061520 | 27 | 126 | 0.0 | 3.2 | 0.00 | 0.00 | 0.00 | 61 | 1016.5 |
| 20260903061016 | 28 | 126 | 0.0 | 3.2 | 0.00 | 0.00 | 0.00 | 60 | 1016.6 |
| 20260903060512 | 28 | 126 | 1.6 | 3.2 | 0.00 | 0.00 | 0.00 | 59 | 1016.5 |
| 20260903060043 | 28 | 126 | 1.6 | 3.2 | 0.00 | 0.00 | 0.00 | 57 | 1016.5 |
| 20260903055525 | 27 | 126 | 1.6 | 1.6 | 0.00 | 0.00 | 0.00 | 66 | 1016.6 |
| 20260903055021 | 27 | 126 | 0.0 | 1.6 | 0.00 | 0.00 | 0.00 | 62 | 1016.5 |
| 20260903054517 | 27 | 126 | 0.0 | 1.6 | 0.00 | 0.00 | 0.00 | 61 | 1016.7 |
| 20260903054013 | 27 | 126 | 0.0 | 1.6 | 0.00 | 0.00 | 0.00 | 62 | 1016.6 |
| 20260903053528 | 27 | 126 | 0.0 | 1.6 | 0.00 | 0.00 | 0.00 | 62 | 1016.5 |
| 20260903053023 | 28 | 126 | 0.0 | 1.6 | 0.00 | 0.00 | 0.00 | 61 | 1016.5 |
| 20260903052523 | 28 | 126 | 0.0 | 3.2 | 0.00 | 0.00 | 0.00 | 62 | 1016.8 |
| 20260903052020 | 28 | 126 | 1.6 | 3.2 | 0.00 | 0.00 | 0.00 | 61 | 1016.6 |
| 20260903051515 | 28 | 126 | 1.6 | 3.2 | 0.00 | 0.00 | 0.00 | 61 | 1016.7 |
| 20260903051031 | 28 | 126 | 1.6 | 3.2 | 0.00 | 0.00 | 0.00 | 62 | 1016.6 |
| 20260903050520 | 28 | 126 | 3.2 | 3.2 | 0.00 | 0.00 | 0.00 | 63 | 1016.7 |
| 20260903050027 | 28 | 126 | 1.6 | 3.2 | 0.00 | 0.00 | 0.00 | 63 | 1016.6 |
| 20260903045529 | 28 | 126 | 0.0 | 1.6 | 0.00 | 0.00 | 0.00 | 62 | 1016.6 |
| 20260903045024 | 28 | 126 | 0.0 | 4.8 | 0.00 | 0.00 | 0.00 | 61 | 1016.6 |
| 20260903044524 | 28 | 126 | 1.6 | 4.8 | 0.00 | 0.00 | 0.00 | 61 | 1016.5 |
| 20260903044020 | 28 | 126 | 1.6 | 4.8 | 0.00 | 0.00 | 0.00 | 61 | 1016.4 |
| 20260903043515 | 28 | 125 | 0.0 | 6.4 | 0.00 | 0.00 | 0.00 | 61 | 1016.5 |
| 20260903043031 | 28 | 126 | 3.2 | 6.4 | 0.00 | 0.00 | 0.00 | 61 | 1016.4 |
| 20260903042526 | 28 | 126 | 3.2 | 6.4 | 0.00 | 0.00 | 0.00 | 60 | 1016.5 |
| 20260903042023 | 28 | 126 | 3.2 | 6.4 | 0.00 | 0.00 | 0.00 | 60 | 1016.5 |
| 20260903041519 | 28 | 126 | 1.6 | 6.4 | 0.00 | 0.00 | 0.00 | 59 | 1016.4 |
| 20260903041019 | 28 | 126 | 3.2 | 8.0 | 0.00 | 0.00 | 0.00 | 59 | 1016.4 |
| 20260903040514 | 29 | 126 | 4.8 | 9.7 | 0.00 | 0.00 | 0.00 | 58 | 1016.3 |
| 20260903040041 | 29 | 127 | 4.8 | 14.5 | 0.00 | 0.00 | 0.00 | 58 | 1016.2 |
| 20260903035523 | 29 | 124 | 6.4 | 14.5 | 0.00 | 0.00 | 0.00 | 56 | 1016.2 |
| 20260903035018 | 30 | 101 | 6.4 | 12.9 | 0.00 | 0.00 | 0.00 | 56 | 1016.1 |
| 20260903034513 | 30 | 92 | 4.8 | 8.0 | 0.00 | 0.00 | 0.00 | 55 | 1016.1 |
| 20260903034030 | 30 | 92 | 4.8 | 6.4 | 0.00 | 0.00 | 0.00 | 54 | 1016.0 |
| 20260903033529 | 30 | 91 | 1.6 | 12.9 | 0.00 | 0.00 | 0.00 | 54 | 1016.0 |
| 20260903033025 | 30 | 91 | 4.8 | 12.9 | 0.00 | 0.00 | 0.00 | 54 | 1015.9 |
| 20260903032521 | 30 | 101 | 4.8 | 12.9 | 0.00 | 0.00 | 0.00 | 54 | 1015.8 |
| 20260903032017 | 30 | 225 | 3.2 | 6.4 | 0.00 | 0.00 | 0.00 | 52 | 1015.7 |
| 20260903031513 | 30 | 225 | 3.2 | 6.4 | 0.00 | 0.00 | 0.00 | 52 | 1015.6 |
| 20260903031028 | 30 | 225 | 1.6 | 4.8 | 0.00 | 0.00 | 0.00 | 52 | 1015.6 |
| 20260903030524 | 30 | 225 | 1.6 | 4.8 | 0.00 | 0.00 | 0.00 | 52 | 1015.6 |
| 20260903030035 | 30 | 225 | 1.6 | 4.8 | 0.00 | 0.00 | 0.00 | 51 | 1015.4 |
| 20260903025516 | 30 | 225 | 1.6 | 3.2 | 0.00 | 0.00 | 0.00 | 51 | 1015.4 |
| 20260903025012 | 30 | 225 | 1.6 | 8.0 | 0.00 | 0.00 | 0.00 | 51 | 1015.2 |
| 20260903024528 | 30 | 225 | 3.2 | 9.7 | 0.00 | 0.00 | 0.00 | 51 | 1015.2 |
| 20260903024024 | 30 | 225 | 4.8 | 11.3 | 0.00 | 0.00 | 0.00 | 51 | 1015.1 |
| 20260903023520 | 30 | 231 | 3.2 | 8.0 | 0.00 | 0.00 | 0.00 | 49 | 1015.1 |
| 20260903023016 | 30 | 242 | 4.8 | 8.0 | 0.00 | 0.00 | 0.00 | 49 | 1015.1 |
| 20260903022515 | 30 | 242 | 4.8 | 8.0 | 0.00 | 0.00 | 0.00 | 48 | 1015.1 |
| 20260903022011 | 30 | 242 | 3.2 | 6.4 | 0.00 | 0.00 | 0.00 | 48 | 1015.0 |
| 20260903021527 | 30 | 242 | 1.6 | 4.8 | 0.00 | 0.00 | 0.00 | 46 | 1014.9 |
| 20260903021022 | 30 | 242 | 3.2 | 4.8 | 0.00 | 0.00 | 0.00 | 46 | 1015.0 |
| 20260903020518 | 30 | 242 | 1.6 | 9.7 | 0.00 | 0.00 | 0.00 | 46 | 1015.1 |
| 20260903020027 | 31 | 242 | 3.2 | 9.7 | 0.00 | 0.00 | 0.00 | 45 | 1015.0 |
| 20260903015528 | 31 | 239 | 3.2 | 9.7 | 0.00 | 0.00 | 0.00 | 44 | 1015.0 |
| 20260903015024 | 31 | 238 | 4.8 | 9.7 | 0.00 | 0.00 | 0.00 | 43 | 1015.2 |
| 20260903014523 | 31 | 237 | 4.8 | 11.3 | 0.00 | 0.00 | 0.00 | 43 | 1015.2 |
| 20260903014020 | 31 | 251 | 4.8 | 11.3 | 0.00 | 0.00 | 0.00 | 42 | 1015.3 |
| 20260903013516 | 31 | 250 | 3.2 | 16.1 | 0.00 | 0.00 | 0.00 | 41 | 1015.0 |
| 20260903013011 | 31 | 229 | 3.2 | 16.1 | 0.00 | 0.00 | 0.00 | 41 | 1015.0 |
| 20260903012527 | 31 | 242 | 6.4 | 12.9 | 0.00 | 0.00 | 0.00 | 40 | 1015.0 |
| 20260903012023 | 31 | 248 | 3.2 | 11.3 | 0.00 | 0.00 | 0.00 | 41 | 1014.9 |
| 20260903011520 | 31 | 249 | 4.8 | 11.3 | 0.00 | 0.00 | 0.00 | 42 | 1014.9 |
| 20260903011019 | 31 | 240 | 4.8 | 9.7 | 0.00 | 0.00 | 0.00 | 42 | 1014.9 |
| 20260903010515 | 31 | 250 | 6.4 | 9.7 | 0.00 | 0.00 | 0.00 | 43 | 1014.8 |
| 20260903010043 | 31 | 234 | 6.4 | 9.7 | 0.00 | 0.00 | 0.00 | 44 | 1014.8 |
| 20260903005524 | 31 | 217 | 6.4 | 9.7 | 0.00 | 0.00 | 0.00 | 43 | 1014.8 |
| 20260903005019 | 31 | 217 | 4.8 | 8.0 | 0.00 | 0.00 | 0.00 | 44 | 1014.8 |
| 20260903004514 | 31 | 207 | 4.8 | 12.9 | 0.00 | 0.00 | 0.00 | 44 | 1014.9 |
| 20260903004031 | 32 | 210 | 4.8 | 12.9 | 0.00 | 0.00 | 0.00 | 44 | 1014.9 |
| 20260903003531 | 32 | 208 | 4.8 | 11.3 | 0.00 | 0.00 | 0.00 | 44 | 1014.9 |
| 20260903003027 | 32 | 234 | 4.8 | 12.9 | 0.00 | 0.00 | 0.00 | 44 | 1014.9 |
| 20260903002522 | 32 | 235 | 3.2 | 6.4 | 0.00 | 0.00 | 0.00 | 44 | 1015.0 |
| 20260903002018 | 32 | 235 | 3.2 | 9.7 | 0.00 | 0.00 | 0.00 | 43 | 1015.0 |
| 20260903001514 | 32 | 237 | 4.8 | 11.3 | 0.00 | 0.00 | 0.00 | 44 | 1015.0 |
| 20260903001029 | 31 | 235 | 4.8 | 11.3 | 0.00 | 0.00 | 0.00 | 44 | 1015.1 |
| 20260903000525 | 31 | 237 | 6.4 | 11.3 | 0.00 | 0.00 | 0.00 | 45 | 1015.1 |
| 20260903000037 | 31 | 148 | 6.4 | 16.1 | 0.00 | 0.00 | 0.00 | 44 | 1015.1 |
| 20260902235518 | 31 | 135 | 6.4 | 17.7 | 0.00 | 0.00 | 0.00 | 46 | 1015.0 |
| 20260902235015 | 31 | 210 | 9.7 | 17.7 | 0.00 | 0.00 | 0.00 | 45 | 1015.2 |
| 20260902234531 | 32 | 212 | 4.8 | 14.5 | 0.00 | 0.00 | 0.00 | 45 | 1015.1 |
| 20260902234026 | 32 | 133 | 6.4 | 9.7 | 0.00 | 0.00 | 0.00 | 46 | 1015.0 |
| 20260902233522 | 32 | 206 | 4.8 | 9.7 | 0.00 | 0.00 | 0.00 | 46 | 1015.1 |
| 20260902233018 | 32 | 94 | 3.2 | 6.4 | 0.00 | 0.00 | 0.00 | 45 | 1015.1 |
| 20260902232517 | 32 | 88 | 3.2 | 11.3 | 0.00 | 0.00 | 0.00 | 44 | 1015.2 |
| 20260902232013 | 32 | 89 | 6.4 | 11.3 | 0.00 | 0.00 | 0.00 | 43 | 1015.0 |
| 20260902231529 | 32 | 250 | 1.6 | 6.4 | 0.00 | 0.00 | 0.00 | 43 | 1015.1 |
| 20260902231025 | 33 | 250 | 1.6 | 6.4 | 0.00 | 0.00 | 0.00 | 46 | 1015.2 |
| 20260902230520 | 32 | 248 | 3.2 | 6.4 | 0.00 | 0.00 | 0.00 | 46 | 1015.2 |
| 20260902230047 | 32 | 245 | 1.6 | 4.8 | 0.00 | 0.00 | 0.00 | 47 | 1015.3 |
| 20260902225528 | 32 | 244 | 3.2 | 9.7 | 0.00 | 0.00 | 0.00 | 47 | 1015.2 |
| 20260902225024 | 32 | 244 | 3.2 | 9.7 | 0.00 | 0.00 | 0.00 | 46 | 1015.4 |
| 20260902224524 | 32 | 243 | 4.8 | 6.4 | 0.00 | 0.00 | 0.00 | 44 | 1015.4 |
| 20260902224019 | 32 | 334 | 1.6 | 6.4 | 0.00 | 0.00 | 0.00 | 44 | 1015.5 |
| 20260902223515 | 33 | 334 | 3.2 | 6.4 | 0.00 | 0.00 | 0.00 | 41 | 1015.5 |
| 20260902223031 | 33 | 346 | 3.2 | 8.0 | 0.00 | 0.00 | 0.00 | 43 | 1015.5 |
| 20260902222527 | 33 | 346 | 1.6 | 8.0 | 0.00 | 0.00 | 0.00 | 44 | 1015.5 |
| 20260902222022 | 33 | 335 | 3.2 | 8.0 | 0.00 | 0.00 | 0.00 | 44 | 1015.5 |
| 20260902221518 | 33 | 319 | 1.6 | 4.8 | 0.00 | 0.00 | 0.00 | 45 | 1015.5 |
| 20260902221018 | 33 | 319 | 1.6 | 4.8 | 0.00 | 0.00 | 0.00 | 45 | 1015.7 |
| 20260902220514 | 33 | 319 | 1.6 | 4.8 | 0.00 | 0.00 | 0.00 | 40 | 1015.8 |
| 20260902220042 | 33 | 319 | 1.6 | 4.8 | 0.00 | 0.00 | 0.00 | 39 | 1015.8 |
| 20260902215523 | 33 | 319 | 1.6 | 9.7 | 0.00 | 0.00 | 0.00 | 42 | 1015.7 |
| 20260902215019 | 33 | 319 | 3.2 | 9.7 | 0.00 | 0.00 | 0.00 | 40 | 1015.9 |
| 20260902214516 | 33 | 306 | 3.2 | 6.4 | 0.00 | 0.00 | 0.00 | 41 | 1016.0 |
| 20260902214031 | 33 | 284 | 1.6 | 11.3 | 0.00 | 0.00 | 0.00 | 41 | 1016.1 |
| 20260902213531 | 33 | 284 | 6.4 | 12.9 | 0.00 | 0.00 | 0.00 | 39 | 1016.1 |
| 20260902213027 | 33 | 284 | 1.6 | 11.3 | 0.00 | 0.00 | 0.00 | 42 | 1016.0 |
| 20260902212522 | 33 | 282 | 1.6 | 11.3 | 0.00 | 0.00 | 0.00 | 41 | 1016.1 |
| 20260902212018 | 33 | 297 | 4.8 | 8.0 | 0.00 | 0.00 | 0.00 | 41 | 1015.9 |
| 20260902211513 | 33 | 322 | 4.8 | 8.0 | 0.00 | 0.00 | 0.00 | 43 | 1016.1 |
| 20260902211028 | 33 | 325 | 1.6 | 8.0 | 0.00 | 0.00 | 0.00 | 41 | 1016.3 |
| 20260902210524 | 33 | 325 | 3.2 | 9.7 | 0.00 | 0.00 | 0.00 | 41 | 1016.4 |
| 20260902210037 | 33 | 320 | 1.6 | 9.7 | 0.00 | 0.00 | 0.00 | 44 | 1016.5 |
| 20260902205518 | 34 | 314 | 3.2 | 11.3 | 0.00 | 0.00 | 0.00 | 40 | 1016.5 |
| 20260902205013 | 33 | 267 | 3.2 | 11.3 | 0.00 | 0.00 | 0.00 | 45 | 1016.4 |
| 20260902204529 | 33 | 267 | 6.4 | 12.9 | 0.00 | 0.00 | 0.00 | 43 | 1016.5 |
| 20260902204025 | 33 | 284 | 4.8 | 12.9 | 0.00 | 0.00 | 0.00 | 43 | 1016.5 |
| 20260902203521 | 33 | 294 | 3.2 | 16.1 | 0.00 | 0.00 | 0.00 | 44 | 1016.7 |
| 20260902203016 | 33 | 291 | 6.4 | 16.1 | 0.00 | 0.00 | 0.00 | 45 | 1016.9 |
| 20260902202516 | 33 | 301 | 1.6 | 12.9 | 0.00 | 0.00 | 0.00 | 44 | 1016.8 |
| 20260902202032 | 33 | 317 | 3.2 | 14.5 | 0.00 | 0.00 | 0.00 | 44 | 1016.7 |
| 20260902201527 | 33 | 15 | 4.8 | 14.5 | 0.00 | 0.00 | 0.00 | 44 | 1016.7 |
| 20260902201022 | 33 | 2 | 3.2 | 14.5 | 0.00 | 0.00 | 0.00 | 44 | 1016.7 |
| 20260902200518 | 35 | 309 | 3.2 | 14.5 | 0.00 | 0.00 | 0.00 | 42 | 1016.9 |
| 20260902200046 | 34 | 330 | 3.2 | 12.9 | 0.00 | 0.00 | 0.00 | 45 | 1016.9 |
| 20260902195022 | 34 | 1 | 3.2 | 9.7 | 0.00 | 0.00 | 0.00 | 46 | 1017.3 |
| 20260902194522 | 32 | 15 | 4.8 | 14.5 | 0.00 | 0.00 | 0.00 | 48 | 1017.3 |
| 20260902194018 | 32 | 40 | 6.4 | 14.5 | 0.00 | 0.00 | 0.00 | 47 | 1017.3 |
| 20260902193513 | 33 | 287 | 6.4 | 12.9 | 0.00 | 0.00 | 0.00 | 44 | 1017.4 |
| 20260902193028 | 33 | 287 | 4.8 | 11.3 | 0.00 | 0.00 | 0.00 | 45 | 1017.5 |
| 20260902192523 | 32 | 6 | 3.2 | 9.7 | 0.00 | 0.00 | 0.00 | 47 | 1017.7 |
| 20260902192019 | 33 | 327 | 1.6 | 12.9 | 0.00 | 0.00 | 0.00 | 47 | 1017.7 |
| 20260902191515 | 32 | 319 | 4.8 | 12.9 | 0.00 | 0.00 | 0.00 | 47 | 1017.9 |
| 20260902191014 | 33 | 359 | 4.8 | 14.5 | 0.00 | 0.00 | 0.00 | 45 | 1017.9 |
| 20260902190529 | 33 | 354 | 3.2 | 16.1 | 0.00 | 0.00 | 0.00 | 45 | 1017.8 |
| 20260902190037 | 33 | 350 | 6.4 | 16.1 | 0.00 | 0.00 | 0.00 | 46 | 1018.0 |
| 20260902185518 | 33 | 285 | 3.2 | 14.5 | 0.00 | 0.00 | 0.00 | 44 | 1018.0 |
| 20260902185014 | 34 | 284 | 8.0 | 14.5 | 0.00 | 0.00 | 0.00 | 43 | 1018.2 |
| 20260902184530 | 34 | 317 | 4.8 | 9.7 | 0.00 | 0.00 | 0.00 | 43 | 1018.2 |
| 20260902184025 | 33 | 306 | 3.2 | 9.7 | 0.00 | 0.00 | 0.00 | 46 | 1018.3 |
| 20260902183525 | 33 | 294 | 1.6 | 9.7 | 0.00 | 0.00 | 0.00 | 46 | 1018.4 |
| 20260902183020 | 34 | 288 | 3.2 | 12.9 | 0.00 | 0.00 | 0.00 | 44 | 1018.5 |
| 20260902182516 | 33 | 281 | 6.4 | 12.9 | 0.00 | 0.00 | 0.00 | 45 | 1018.5 |
| 20260902182032 | 32 | 339 | 3.2 | 9.7 | 0.00 | 0.00 | 0.00 | 48 | 1018.5 |
| 20260902181527 | 32 | 29 | 4.8 | 11.3 | 0.00 | 0.00 | 0.00 | 46 | 1018.6 |
| 20260902181023 | 33 | 356 | 6.4 | 11.3 | 0.00 | 0.00 | 0.00 | 47 | 1018.6 |
| 20260902180518 | 34 | 330 | 3.2 | 8.0 | 0.00 | 0.00 | 0.00 | 46 | 1018.7 |
| 20260902180030 | 32 | 330 | 3.2 | 8.0 | 0.00 | 0.00 | 0.00 | 50 | 1018.8 |
| 20260902175531 | 33 | 332 | 4.8 | 9.7 | 0.00 | 0.00 | 0.00 | 47 | 1018.9 |
| 20260902175027 | 33 | 289 | 1.6 | 9.7 | 0.00 | 0.00 | 0.00 | 47 | 1018.9 |
| 20260902174523 | 32 | 358 | 1.6 | 8.0 | 0.00 | 0.00 | 0.00 | 48 | 1019.0 |
| 20260902174019 | 32 | 358 | 4.8 | 8.0 | 0.00 | 0.00 | 0.00 | 49 | 1018.9 |
| 20260902173514 | 32 | 358 | 1.6 | 8.0 | 0.00 | 0.00 | 0.00 | 49 | 1019.0 |
| 20260902173030 | 32 | 342 | 4.8 | 8.0 | 0.00 | 0.00 | 0.00 | 50 | 1018.9 |
| 20260902172526 | 32 | 333 | 1.6 | 4.8 | 0.00 | 0.00 | 0.00 | 49 | 1018.9 |
| 20260902172026 | 32 | 333 | 3.2 | 4.8 | 0.00 | 0.00 | 0.00 | 49 | 1019.0 |
| 20260902171523 | 32 | 360 | 1.6 | 6.4 | 0.00 | 0.00 | 0.00 | 50 | 1019.0 |
| 20260902171019 | 32 | 360 | 3.2 | 6.4 | 0.00 | 0.00 | 0.00 | 50 | 1019.1 |
| 20260902170514 | 32 | 24 | 1.6 | 4.8 | 0.00 | 0.00 | 0.00 | 51 | 1019.0 |
| 20260902170041 | 31 | 27 | 1.6 | 8.0 | 0.00 | 0.00 | 0.00 | 50 | 1019.0 |
| 20260902165521 | 31 | 27 | 4.8 | 8.0 | 0.00 | 0.00 | 0.00 | 51 | 1019.0 |
| 20260902165016 | 31 | 75 | 3.2 | 4.8 | 0.00 | 0.00 | 0.00 | 54 | 1019.0 |
| 20260902164517 | 31 | 74 | 1.6 | 6.4 | 0.00 | 0.00 | 0.00 | 54 | 1019.0 |
| 20260902164013 | 30 | 75 | 3.2 | 6.4 | 0.00 | 0.00 | 0.00 | 54 | 1019.1 |
| 20260902163530 | 30 | 75 | 1.6 | 9.7 | 0.00 | 0.00 | 0.00 | 55 | 1019.1 |